Flag for U.S.A. Weather past 2 weeks in Fall River, Massachusetts, U.S.A.

Now
66 °F

Overcast.


Feels Like: 66 °F
Forecast: 62 / 76 °F
Wind: 7 mph from Southeast

Location: New Bedford Regional Airport

Current Time: Sep 21, 2014 at 4:52:46 AM

Latest Report: Sep 21, 2014 at 3:53 AM


Visibility: 10 mi

Pressure: 30.00 "Hg

Humidity: 90%

Dew point: 63 °F

Location of Fall RiverLocation

Historic Weather in Fall River — Graph

°F

Fall River temperature yesterday

Maximum temperature yesterday: 69 °F (at 1:53 PM)
Minimum temperature yesterday: 34 °F (at 2:53 AM)
Average temperature yesterday: 52 °F

Past Weeks' High & Low Weather Summary

 TemperatureHumidityPressure
High85 °F (Sep 6, 12:53 PM)100% (Sep 7, 11:53 PM)30.42 "Hg (Sep 7, 11:53 PM)
Low34 °F (Sep 20, 2:53 AM)32% (Sep 17, 2:53 PM)29.80 "Hg (Sep 6, 5:53 PM)
Average62 °F77%30.10 "Hg
* Reported Sep 6 3:53 AM — Sep 21 3:53 AM, Fall River, Weather by CustomWeather, © 2014

Note: Actual official high and low records may vary slightly from our data, if they occured in-between our weather recording intervals... More about our weather records

Advertising

Fall River weather history for previous 24 hours

 ConditionsComfort  
Time TempWeatherWind HumidityBarometerVisibility
3:53 AM
Sep 21
66 °FOvercast.7 mph90%30.00 "Hg10 mi
2:53 AM64 °FOvercast.6 mph90%30.03 "Hg10 mi
1:53 AM58 °FOvercast.No wind90%30.06 "Hg10 mi
12:53 AM57 °FPassing clouds.No wind90%30.09 "Hg10 mi
11:53 PM
Sep 20
55 °FPassing clouds.No wind96%30.10 "Hg10 mi
10:53 PM56 °FOvercast.No wind93%30.13 "Hg10 mi
9:53 PM54 °FClear.No wind97%30.15 "Hg10 mi
8:53 PM55 °FClear.No wind93%30.15 "Hg10 mi
7:53 PM61 °FClear.No wind81%30.16 "Hg10 mi
6:53 PM65 °FSunny.7 mph70%30.16 "Hg10 mi
5:53 PM68 °FSunny.13 mph61%30.18 "Hg10 mi
4:53 PM69 °FPassing clouds.14 mph59%30.19 "Hg10 mi
3:53 PM69 °FMostly cloudy.14 mph63%30.21 "Hg10 mi
2:53 PM69 °FPartly sunny.13 mph61%30.22 "Hg10 mi
1:53 PM69 °FPartly sunny.15 mph61%30.24 "Hg10 mi
8:53 AM59 °FSunny.8 mph67%30.33 "Hg10 mi
7:53 AM44 °FSunny.No wind89%30.35 "Hg10 mi
6:53 AM35 °FClear.No wind92%30.37 "Hg10 mi
5:53 AM35 °FClear.No wind92%30.36 "Hg10 mi
4:53 AM34 °FClear.No wind97%30.37 "Hg10 mi
Weather by CustomWeather, © 2014

See weather overviewHow to use our weather pages